| time (UTC) | temp F | wind direction | speed MPH | gust MPH | rain 1hr in | rain 24hr in | rain mn in | humidity % | barometer mb |
| 20260903213819 | 88 | 103 | 2.0 | 9.0 | 0.00 | 0.00 | 0.00 | 19 | 1011.8 |
| 20260903213335 | 87 | 218 | 3.0 | 9.0 | 0.00 | 0.00 | 0.00 | 18 | 1011.9 |
| 20260903212827 | 86 | 132 | 1.0 | 10.0 | 0.00 | 0.00 | 0.00 | 19 | 1011.8 |
| 20260903212317 | 86 | 156 | 5.0 | 10.0 | 0.00 | 0.00 | 0.00 | 19 | 1012.0 |
| 20260903211828 | 86 | 232 | 4.0 | 8.0 | 0.00 | 0.00 | 0.00 | 17 | 1012.1 |
| 20260903211320 | 86 | 245 | 3.0 | 8.0 | 0.00 | 0.00 | 0.00 | 17 | 1012.1 |
| 20260903210831 | 86 | 223 | 4.0 | 8.0 | 0.00 | 0.00 | 0.00 | 18 | 1012.0 |
| 20260903210322 | 86 | 281 | 3.0 | 8.0 | 0.00 | 0.00 | 0.00 | 20 | 1012.1 |
| 20260903205834 | 86 | 145 | 1.0 | 11.0 | 0.00 | 0.00 | 0.00 | 21 | 1012.1 |
| 20260903205324 | 85 | 240 | 6.0 | 11.0 | 0.00 | 0.00 | 0.00 | 21 | 1012.3 |
| 20260903204818 | 85 | 206 | 4.0 | 11.0 | 0.00 | 0.00 | 0.00 | 23 | 1012.3 |
| 20260903204329 | 86 | 213 | 4.0 | 10.0 | 0.00 | 0.00 | 0.00 | 24 | 1012.4 |
| 20260903203840 | 86 | 268 | 2.0 | 7.0 | 0.00 | 0.00 | 0.00 | 24 | 1012.4 |
| 20260903203331 | 85 | 271 | 2.0 | 8.0 | 0.00 | 0.00 | 0.00 | 25 | 1012.4 |
| 20260903202823 | 84 | 203 | 2.0 | 8.0 | 0.00 | 0.00 | 0.00 | 26 | 1012.4 |
| 20260903202314 | 84 | 321 | 2.0 | 11.0 | 0.00 | 0.00 | 0.00 | 26 | 1012.4 |
| 20260903201825 | 84 | 319 | 4.0 | 11.0 | 0.00 | 0.00 | 0.00 | 26 | 1012.6 |
| 20260903201316 | 84 | 218 | 6.0 | 9.0 | 0.00 | 0.00 | 0.00 | 27 | 1012.5 |
| 20260903200827 | 84 | 312 | 3.0 | 9.0 | 0.00 | 0.00 | 0.00 | 28 | 1012.5 |
| 20260903200338 | 84 | 271 | 3.0 | 8.0 | 0.00 | 0.00 | 0.00 | 27 | 1012.6 |
| 20260903195813 | 84 | 255 | 3.0 | 7.0 | 0.00 | 0.00 | 0.00 | 28 | 1012.6 |
| 20260903195324 | 83 | 290 | 1.0 | 11.0 | 0.00 | 0.00 | 0.00 | 28 | 1012.7 |
| 20260903194814 | 83 | 219 | 6.0 | 11.0 | 0.00 | 0.00 | 0.00 | 28 | 1012.8 |
| 20260903194326 | 83 | 288 | 4.0 | 8.0 | 0.00 | 0.00 | 0.00 | 27 | 1012.8 |
| 20260903193817 | 83 | 309 | 1.0 | 9.0 | 0.00 | 0.00 | 0.00 | 28 | 1013.0 |
| 20260903193328 | 82 | 314 | 3.0 | 9.0 | 0.00 | 0.00 | 0.00 | 29 | 1013.1 |
| 20260903192818 | 82 | 256 | 4.0 | 7.0 | 0.00 | 0.00 | 0.00 | 28 | 1013.2 |
| 20260903192328 | 82 | 304 | 4.0 | 7.0 | 0.00 | 0.00 | 0.00 | 28 | 1013.2 |
| 20260903191819 | 82 | 259 | 2.0 | 9.0 | 0.00 | 0.00 | 0.00 | 29 | 1013.3 |
| 20260903191313 | 81 | 271 | 5.0 | 9.0 | 0.00 | 0.00 | 0.00 | 29 | 1013.4 |
| 20260903190825 | 81 | 300 | 3.0 | 7.0 | 0.00 | 0.00 | 0.00 | 29 | 1013.4 |
| 20260903190315 | 81 | 283 | 2.0 | 7.0 | 0.00 | 0.00 | 0.00 | 29 | 1013.5 |
| 20260903185826 | 81 | 264 | 2.0 | 7.0 | 0.00 | 0.00 | 0.00 | 29 | 1013.7 |
| 20260903185318 | 80 | 305 | 4.0 | 7.0 | 0.00 | 0.00 | 0.00 | 28 | 1013.8 |
| 20260903184849 | 81 | 221 | 2.0 | 5.0 | 0.00 | 0.00 | 0.00 | 28 | 1014.0 |
| 20260903184319 | 80 | 203 | 1.0 | 7.0 | 0.00 | 0.00 | 0.00 | 29 | 1014.0 |
| 20260903183831 | 80 | 219 | 3.0 | 8.0 | 0.00 | 0.00 | 0.00 | 30 | 1014.0 |
| 20260903183343 | 79 | 55 | 3.0 | 8.0 | 0.00 | 0.00 | 0.00 | 32 | 1013.9 |
| 20260903182812 | 79 | 198 | 4.0 | 7.0 | 0.00 | 0.00 | 0.00 | 32 | 1014.0 |
| 20260903182327 | 78 | 141 | 1.0 | 5.0 | 0.00 | 0.00 | 0.00 | 34 | 1014.1 |
| 20260903181839 | 77 | 294 | 2.0 | 5.0 | 0.00 | 0.00 | 0.00 | 35 | 1014.2 |
| 20260903181330 | 77 | 308 | 1.0 | 5.0 | 0.00 | 0.00 | 0.00 | 37 | 1014.3 |
| 20260903180821 | 77 | 98 | 1.0 | 9.0 | 0.00 | 0.00 | 0.00 | 37 | 1014.3 |
| 20260903180323 | 77 | 233 | 4.0 | 9.0 | 0.00 | 0.00 | 0.00 | 37 | 1014.3 |
| 20260903175813 | 77 | 221 | 2.0 | 6.0 | 0.00 | 0.00 | 0.00 | 37 | 1014.3 |
| 20260903175323 | 77 | 222 | 2.0 | 6.0 | 0.00 | 0.00 | 0.00 | 38 | 1014.4 |
| 20260903174816 | 77 | 205 | 1.0 | 4.0 | 0.00 | 0.00 | 0.00 | 39 | 1014.3 |
| 20260903174328 | 76 | 53 | 1.0 | 4.0 | 0.00 | 0.00 | 0.00 | 39 | 1014.4 |
| 20260903173821 | 75 | 186 | 1.0 | 4.0 | 0.00 | 0.00 | 0.00 | 40 | 1014.4 |
| 20260903173316 | 75 | 243 | 2.0 | 4.0 | 0.00 | 0.00 | 0.00 | 40 | 1014.4 |
| 20260903172827 | 75 | 217 | 1.0 | 4.0 | 0.00 | 0.00 | 0.00 | 42 | 1014.4 |
| 20260903172318 | 74 | 268 | 2.0 | 6.0 | 0.00 | 0.00 | 0.00 | 42 | 1014.5 |
| 20260903171830 | 73 | 302 | 2.0 | 6.0 | 0.00 | 0.00 | 0.00 | 45 | 1014.4 |
| 20260903171321 | 73 | 300 | 2.0 | 5.0 | 0.00 | 0.00 | 0.00 | 45 | 1014.4 |
| 20260903170811 | 73 | 32 | 1.0 | 6.0 | 0.00 | 0.00 | 0.00 | 45 | 1014.4 |
| 20260903170323 | 73 | 298 | 2.0 | 5.0 | 0.00 | 0.00 | 0.00 | 44 | 1014.5 |
| 20260903165814 | 73 | 304 | 2.0 | 5.0 | 0.00 | 0.00 | 0.00 | 43 | 1014.6 |
| 20260903165326 | 73 | 283 | 2.0 | 5.0 | 0.00 | 0.00 | 0.00 | 42 | 1014.5 |
| 20260903164841 | 72 | 328 | 1.0 | 3.0 | 0.00 | 0.00 | 0.00 | 41 | 1014.5 |
| 20260903164330 | 72 | 358 | 0.0 | 3.0 | 0.00 | 0.00 | 0.00 | 42 | 1014.6 |
| 20260903163821 | 72 | 233 | 0.0 | 3.0 | 0.00 | 0.00 | 0.00 | 44 | 1014.5 |
| 20260903163313 | 72 | 323 | 2.0 | 3.0 | 0.00 | 0.00 | 0.00 | 43 | 1014.5 |
| 20260903162823 | 72 | 159 | 0.0 | 2.0 | 0.00 | 0.00 | 0.00 | 43 | 1014.5 |
| 20260903162315 | 71 | 214 | 0.0 | 0.0 | 0.00 | 0.00 | 0.00 | 43 | 1014.5 |
| 20260903161826 | 70 | 235 | 0.0 | 0.0 | 0.00 | 0.00 | 0.00 | 43 | 1014.5 |
| 20260903161338 | 70 | 300 | 0.0 | 0.0 | 0.00 | 0.00 | 0.00 | 41 | 1014.5 |
| 20260903160829 | 70 | 274 | 0.0 | 0.0 | 0.00 | 0.00 | 0.00 | 40 | 1014.5 |
| 20260903160320 | 70 | 290 | 0.0 | 0.0 | 0.00 | 0.00 | 0.00 | 40 | 1014.6 |
| 20260903155815 | 70 | 262 | 0.0 | 0.0 | 0.00 | 0.00 | 0.00 | 38 | 1014.6 |
| 20260903155347 | 70 | 212 | 0.0 | 0.0 | 0.00 | 0.00 | 0.00 | 37 | 1014.7 |
| 20260903154817 | 69 | 245 | 0.0 | 0.0 | 0.00 | 0.00 | 0.00 | 35 | 1014.7 |
| 20260903154328 | 70 | 221 | 0.0 | 0.0 | 0.00 | 0.00 | 0.00 | 34 | 1014.7 |
| 20260903153819 | 69 | 223 | 0.0 | 0.0 | 0.00 | 0.00 | 0.00 | 33 | 1014.8 |
| 20260903153312 | 69 | 223 | 0.0 | 0.0 | 0.00 | 0.00 | 0.00 | 33 | 1014.8 |
| 20260903152823 | 70 | 99 | 0.0 | 0.0 | 0.00 | 0.00 | 0.00 | 34 | 1014.8 |
| 20260903152314 | 70 | 99 | 0.0 | 0.0 | 0.00 | 0.00 | 0.00 | 34 | 1014.9 |
| 20260903151825 | 69 | 99 | 0.0 | 0.0 | 0.00 | 0.00 | 0.00 | 35 | 1014.8 |
| 20260903151321 | 69 | 99 | 0.0 | 0.0 | 0.00 | 0.00 | 0.00 | 37 | 1014.8 |
| 20260903150813 | 67 | 99 | 0.0 | 0.0 | 0.00 | 0.00 | 0.00 | 39 | 1014.8 |
| 20260903150324 | 65 | 99 | 0.0 | 0.0 | 0.00 | 0.00 | 0.00 | 39 | 1014.7 |
| 20260903145814 | 65 | 99 | 0.0 | 0.0 | 0.00 | 0.00 | 0.00 | 41 | 1014.8 |
| 20260903145326 | 64 | 99 | 0.0 | 0.0 | 0.00 | 0.00 | 0.00 | 42 | 1014.7 |
| 20260903144817 | 63 | 99 | 0.0 | 0.0 | 0.00 | 0.00 | 0.00 | 43 | 1014.7 |
| 20260903144327 | 62 | 99 | 0.0 | 0.0 | 0.00 | 0.00 | 0.00 | 47 | 1014.7 |
| 20260903143839 | 61 | 99 | 0.0 | 0.0 | 0.00 | 0.00 | 0.00 | 48 | 1014.6 |
| 20260903143349 | 60 | 99 | 0.0 | 0.0 | 0.00 | 0.00 | 0.00 | 50 | 1014.5 |
| 20260903142819 | 59 | 99 | 0.0 | 0.0 | 0.00 | 0.00 | 0.00 | 50 | 1014.5 |
| 20260903142352 | 58 | 99 | 0.0 | 0.0 | 0.00 | 0.00 | 0.00 | 51 | 1014.4 |
| 20260903141841 | 56 | 99 | 0.0 | 0.0 | 0.00 | 0.00 | 0.00 | 51 | 1014.3 |
| 20260903141316 | 55 | 89 | 0.0 | 0.0 | 0.00 | 0.00 | 0.00 | 52 | 1014.3 |
| 20260903140849 | 54 | 78 | 0.0 | 0.0 | 0.00 | 0.00 | 0.00 | 54 | 1014.2 |
| 20260903140339 | 52 | 100 | 0.0 | 0.0 | 0.00 | 0.00 | 0.00 | 58 | 1014.2 |
| 20260903135829 | 52 | 100 | 0.0 | 0.0 | 0.00 | 0.00 | 0.00 | 60 | 1014.2 |
| 20260903135339 | 51 | 100 | 0.0 | 0.0 | 0.00 | 0.00 | 0.00 | 60 | 1014.2 |
| 20260903134829 | 52 | 100 | 0.0 | 0.0 | 0.00 | 0.00 | 0.00 | 61 | 1014.1 |
| 20260903134340 | 52 | 100 | 0.0 | 0.0 | 0.00 | 0.00 | 0.00 | 61 | 1014.0 |
| 20260903133831 | 52 | 100 | 0.0 | 0.0 | 0.00 | 0.00 | 0.00 | 63 | 1013.9 |
| 20260903133322 | 52 | 100 | 0.0 | 0.0 | 0.00 | 0.00 | 0.00 | 64 | 1013.9 |
| 20260903132812 | 52 | 100 | 0.0 | 0.0 | 0.00 | 0.00 | 0.00 | 65 | 1013.8 |
| 20260903132323 | 52 | 100 | 0.0 | 0.0 | 0.00 | 0.00 | 0.00 | 66 | 1013.9 |
| 20260903131819 | 52 | 100 | 0.0 | 0.0 | 0.00 | 0.00 | 0.00 | 67 | 1013.9 |
| 20260903131311 | 51 | 100 | 0.0 | 0.0 | 0.00 | 0.00 | 0.00 | 67 | 1013.8 |
| 20260903130822 | 52 | 100 | 0.0 | 0.0 | 0.00 | 0.00 | 0.00 | 66 | 1013.9 |
| 20260903130313 | 52 | 100 | 0.0 | 0.0 | 0.00 | 0.00 | 0.00 | 66 | 1013.9 |
| 20260903125824 | 52 | 100 | 0.0 | 0.0 | 0.00 | 0.00 | 0.00 | 66 | 1013.9 |
| 20260903125315 | 52 | 100 | 0.0 | 0.0 | 0.00 | 0.00 | 0.00 | 68 | 1013.9 |
| 20260903124827 | 52 | 100 | 0.0 | 0.0 | 0.00 | 0.00 | 0.00 | 68 | 1014.0 |
| 20260903124319 | 53 | 100 | 0.0 | 0.0 | 0.00 | 0.00 | 0.00 | 68 | 1014.0 |
| 20260903123830 | 53 | 100 | 0.0 | 0.0 | 0.00 | 0.00 | 0.00 | 67 | 1014.0 |
| 20260903123326 | 53 | 100 | 0.0 | 0.0 | 0.00 | 0.00 | 0.00 | 67 | 1014.0 |
| 20260903122817 | 53 | 100 | 0.0 | 0.0 | 0.00 | 0.00 | 0.00 | 66 | 1014.0 |
| 20260903122330 | 53 | 100 | 0.0 | 0.0 | 0.00 | 0.00 | 0.00 | 66 | 1014.0 |
| 20260903121821 | 53 | 100 | 0.0 | 0.0 | 0.00 | 0.00 | 0.00 | 66 | 1014.0 |
| 20260903121332 | 53 | 100 | 0.0 | 0.0 | 0.00 | 0.00 | 0.00 | 66 | 1014.0 |
| 20260903120823 | 53 | 100 | 0.0 | 0.0 | 0.00 | 0.00 | 0.00 | 66 | 1014.0 |
| 20260903120314 | 53 | 100 | 0.0 | 0.0 | 0.00 | 0.00 | 0.00 | 66 | 1014.0 |
| 20260903115826 | 53 | 100 | 0.0 | 0.0 | 0.00 | 0.00 | 0.00 | 66 | 1014.0 |
| 20260903115318 | 53 | 100 | 0.0 | 0.0 | 0.00 | 0.00 | 0.00 | 66 | 1014.0 |
| 20260903114833 | 53 | 100 | 0.0 | 0.0 | 0.00 | 0.00 | 0.00 | 67 | 1014.1 |
| 20260903114323 | 53 | 100 | 0.0 | 0.0 | 0.00 | 0.00 | 0.00 | 66 | 1014.2 |
| 20260903113813 | 54 | 100 | 0.0 | 0.0 | 0.00 | 0.00 | 0.00 | 66 | 1014.2 |
| 20260903113323 | 54 | 100 | 0.0 | 0.0 | 0.00 | 0.00 | 0.00 | 66 | 1014.3 |
| 20260903112814 | 54 | 100 | 0.0 | 0.0 | 0.00 | 0.00 | 0.00 | 66 | 1014.4 |
| 20260903112324 | 54 | 100 | 0.0 | 0.0 | 0.00 | 0.00 | 0.00 | 66 | 1014.3 |
| 20260903111816 | 54 | 100 | 0.0 | 0.0 | 0.00 | 0.00 | 0.00 | 66 | 1014.3 |
| 20260903111328 | 54 | 100 | 0.0 | 0.0 | 0.00 | 0.00 | 0.00 | 67 | 1014.3 |
| 20260903110840 | 54 | 100 | 0.0 | 0.0 | 0.00 | 0.00 | 0.00 | 68 | 1014.3 |
| 20260903110330 | 54 | 100 | 0.0 | 0.0 | 0.00 | 0.00 | 0.00 | 69 | 1014.3 |
| 20260903105823 | 54 | 100 | 0.0 | 0.0 | 0.00 | 0.00 | 0.00 | 71 | 1014.4 |
| 20260903105319 | 55 | 100 | 0.0 | 0.0 | 0.00 | 0.00 | 0.00 | 71 | 1014.5 |
| 20260903104830 | 55 | 100 | 0.0 | 0.0 | 0.00 | 0.00 | 0.00 | 71 | 1014.4 |
| 20260903104322 | 55 | 100 | 0.0 | 0.0 | 0.00 | 0.00 | 0.00 | 71 | 1014.5 |
| 20260903103814 | 55 | 100 | 0.0 | 0.0 | 0.00 | 0.00 | 0.00 | 71 | 1014.5 |
| 20260903103325 | 55 | 100 | 0.0 | 0.0 | 0.00 | 0.00 | 0.00 | 71 | 1014.5 |
| 20260903102817 | 56 | 100 | 0.0 | 0.0 | 0.00 | 0.00 | 0.00 | 70 | 1014.5 |
| 20260903102329 | 56 | 100 | 0.0 | 0.0 | 0.00 | 0.00 | 0.00 | 69 | 1014.5 |
| 20260903101840 | 56 | 100 | 0.0 | 0.0 | 0.00 | 0.00 | 0.00 | 68 | 1014.5 |
| 20260903101329 | 56 | 100 | 0.0 | 0.0 | 0.00 | 0.00 | 0.00 | 67 | 1014.6 |
| 20260903100824 | 56 | 100 | 0.0 | 0.0 | 0.00 | 0.00 | 0.00 | 66 | 1014.6 |
| 20260903100314 | 56 | 100 | 0.0 | 0.0 | 0.00 | 0.00 | 0.00 | 65 | 1014.5 |
| 20260903095825 | 56 | 100 | 0.0 | 0.0 | 0.00 | 0.00 | 0.00 | 65 | 1014.5 |
| 20260903095316 | 56 | 100 | 0.0 | 0.0 | 0.00 | 0.00 | 0.00 | 64 | 1014.6 |
| 20260903094826 | 56 | 100 | 0.0 | 0.0 | 0.00 | 0.00 | 0.00 | 64 | 1014.6 |
| 20260903094316 | 57 | 100 | 0.0 | 0.0 | 0.00 | 0.00 | 0.00 | 63 | 1014.6 |
| 20260903093848 | 56 | 100 | 0.0 | 0.0 | 0.00 | 0.00 | 0.00 | 63 | 1014.6 |
| 20260903093317 | 56 | 100 | 0.0 | 0.0 | 0.00 | 0.00 | 0.00 | 63 | 1014.6 |
| 20260903092828 | 56 | 100 | 0.0 | 0.0 | 0.00 | 0.00 | 0.00 | 66 | 1014.6 |
| 20260903092321 | 56 | 100 | 0.0 | 0.0 | 0.00 | 0.00 | 0.00 | 66 | 1014.6 |
| 20260903091815 | 56 | 100 | 0.0 | 0.0 | 0.00 | 0.00 | 0.00 | 65 | 1014.7 |
| 20260903091326 | 56 | 100 | 0.0 | 0.0 | 0.00 | 0.00 | 0.00 | 65 | 1014.7 |
| 20260903090813 | 56 | 100 | 0.0 | 0.0 | 0.00 | 0.00 | 0.00 | 66 | 1014.7 |
| 20260903090323 | 56 | 100 | 0.0 | 0.0 | 0.00 | 0.00 | 0.00 | 64 | 1014.7 |
| 20260903085813 | 57 | 100 | 0.0 | 0.0 | 0.00 | 0.00 | 0.00 | 62 | 1014.7 |
| 20260903085325 | 57 | 100 | 0.0 | 0.0 | 0.00 | 0.00 | 0.00 | 62 | 1014.8 |
| 20260903084843 | 57 | 100 | 0.0 | 0.0 | 0.00 | 0.00 | 0.00 | 61 | 1014.8 |
| 20260903084334 | 58 | 100 | 0.0 | 0.0 | 0.00 | 0.00 | 0.00 | 60 | 1014.9 |
| 20260903083823 | 58 | 100 | 0.0 | 0.0 | 0.00 | 0.00 | 0.00 | 59 | 1015.0 |
| 20260903083327 | 58 | 100 | 0.0 | 0.0 | 0.00 | 0.00 | 0.00 | 59 | 1015.0 |
| 20260903082818 | 58 | 100 | 0.0 | 0.0 | 0.00 | 0.00 | 0.00 | 59 | 1014.9 |
| 20260903082329 | 58 | 100 | 0.0 | 0.0 | 0.00 | 0.00 | 0.00 | 59 | 1014.9 |
| 20260903081817 | 58 | 100 | 0.0 | 0.0 | 0.00 | 0.00 | 0.00 | 59 | 1015.0 |
| 20260903081326 | 59 | 100 | 0.0 | 0.0 | 0.00 | 0.00 | 0.00 | 59 | 1015.0 |
| 20260903080816 | 59 | 100 | 0.0 | 0.0 | 0.00 | 0.00 | 0.00 | 59 | 1015.0 |
| 20260903080327 | 59 | 100 | 0.0 | 0.0 | 0.00 | 0.00 | 0.00 | 59 | 1015.0 |
| 20260903075838 | 59 | 100 | 0.0 | 0.0 | 0.00 | 0.00 | 0.00 | 59 | 1015.0 |
| 20260903075326 | 59 | 100 | 0.0 | 0.0 | 0.00 | 0.00 | 0.00 | 60 | 1015.2 |
| 20260903074839 | 59 | 100 | 0.0 | 0.0 | 0.00 | 0.00 | 0.00 | 60 | 1015.1 |
| 20260903074330 | 59 | 100 | 0.0 | 0.0 | 0.00 | 0.00 | 0.00 | 60 | 1015.1 |
| 20260903073821 | 59 | 100 | 0.0 | 0.0 | 0.00 | 0.00 | 0.00 | 60 | 1015.1 |
| 20260903073312 | 59 | 100 | 0.0 | 0.0 | 0.00 | 0.00 | 0.00 | 60 | 1015.1 |
| 20260903072823 | 60 | 100 | 0.0 | 0.0 | 0.00 | 0.00 | 0.00 | 59 | 1015.1 |
| 20260903072334 | 60 | 100 | 0.0 | 0.0 | 0.00 | 0.00 | 0.00 | 59 | 1015.1 |
| 20260903071825 | 60 | 100 | 0.0 | 0.0 | 0.00 | 0.00 | 0.00 | 59 | 1015.1 |
| 20260903071320 | 60 | 100 | 0.0 | 0.0 | 0.00 | 0.00 | 0.00 | 60 | 1015.0 |
| 20260903070830 | 60 | 100 | 0.0 | 0.0 | 0.00 | 0.00 | 0.00 | 60 | 1015.1 |
| 20260903070322 | 60 | 100 | 0.0 | 0.0 | 0.00 | 0.00 | 0.00 | 60 | 1015.1 |
| 20260903065814 | 60 | 100 | 0.0 | 0.0 | 0.00 | 0.00 | 0.00 | 60 | 1015.2 |
| 20260903065325 | 61 | 100 | 0.0 | 0.0 | 0.00 | 0.00 | 0.00 | 60 | 1015.1 |
| 20260903064835 | 61 | 100 | 0.0 | 0.0 | 0.00 | 0.00 | 0.00 | 60 | 1015.2 |
| 20260903064325 | 61 | 100 | 0.0 | 0.0 | 0.00 | 0.00 | 0.00 | 60 | 1015.1 |
| 20260903063816 | 61 | 100 | 0.0 | 0.0 | 0.00 | 0.00 | 0.00 | 60 | 1015.2 |
| 20260903063326 | 61 | 100 | 0.0 | 0.0 | 0.00 | 0.00 | 0.00 | 59 | 1015.3 |
| 20260903062819 | 62 | 100 | 0.0 | 0.0 | 0.00 | 0.00 | 0.00 | 59 | 1015.2 |
| 20260903062315 | 62 | 100 | 0.0 | 0.0 | 0.00 | 0.00 | 0.00 | 59 | 1015.3 |
| 20260903061826 | 63 | 100 | 0.0 | 0.0 | 0.00 | 0.00 | 0.00 | 59 | 1015.3 |
| 20260903061318 | 63 | 100 | 0.0 | 0.0 | 0.00 | 0.00 | 0.00 | 58 | 1015.2 |
| 20260903060828 | 63 | 100 | 0.0 | 0.0 | 0.00 | 0.00 | 0.00 | 57 | 1015.2 |
| 20260903060318 | 64 | 100 | 0.0 | 0.0 | 0.00 | 0.00 | 0.00 | 57 | 1015.3 |
| 20260903055849 | 64 | 100 | 0.0 | 0.0 | 0.00 | 0.00 | 0.00 | 57 | 1015.3 |
| 20260903055320 | 64 | 100 | 0.0 | 0.0 | 0.00 | 0.00 | 0.00 | 56 | 1015.3 |
| 20260903054831 | 65 | 100 | 0.0 | 0.0 | 0.00 | 0.00 | 0.00 | 56 | 1015.3 |
| 20260903054321 | 65 | 100 | 0.0 | 0.0 | 0.00 | 0.00 | 0.00 | 55 | 1015.3 |
| 20260903053854 | 66 | 100 | 0.0 | 0.0 | 0.00 | 0.00 | 0.00 | 53 | 1015.4 |
| 20260903053323 | 66 | 100 | 0.0 | 0.0 | 0.00 | 0.00 | 0.00 | 52 | 1015.4 |
| 20260903052917 | 66 | 100 | 0.0 | 0.0 | 0.00 | 0.00 | 0.00 | 50 | 1015.3 |
| 20260903052403 | 67 | 100 | 0.0 | 0.0 | 0.00 | 0.00 | 0.00 | 50 | 1015.3 |
| 20260903051812 | 67 | 100 | 0.0 | 0.0 | 0.00 | 0.00 | 0.00 | 49 | 1015.3 |
| 20260903051323 | 67 | 100 | 0.0 | 0.0 | 0.00 | 0.00 | 0.00 | 49 | 1015.3 |
| 20260903050818 | 68 | 100 | 0.0 | 0.0 | 0.00 | 0.00 | 0.00 | 48 | 1015.2 |
| 20260903050330 | 68 | 100 | 0.0 | 0.0 | 0.00 | 0.00 | 0.00 | 47 | 1015.1 |
| 20260903045821 | 68 | 100 | 0.0 | 0.0 | 0.00 | 0.00 | 0.00 | 47 | 1015.2 |
| 20260903045333 | 68 | 100 | 0.0 | 0.0 | 0.00 | 0.00 | 0.00 | 47 | 1015.3 |
| 20260903044844 | 69 | 191 | 0.0 | 0.0 | 0.00 | 0.00 | 0.00 | 45 | 1015.1 |
| 20260903044315 | 69 | 191 | 0.0 | 0.0 | 0.00 | 0.00 | 0.00 | 43 | 1015.2 |
| 20260903043846 | 70 | 191 | 0.0 | 1.0 | 0.00 | 0.00 | 0.00 | 42 | 1015.1 |
| 20260903043316 | 70 | 230 | 0.0 | 3.0 | 0.00 | 0.00 | 0.00 | 41 | 1015.0 |
| 20260903042827 | 70 | 191 | 1.0 | 4.0 | 0.00 | 0.00 | 0.00 | 41 | 1014.9 |
| 20260903042317 | 70 | 234 | 2.0 | 4.0 | 0.00 | 0.00 | 0.00 | 41 | 1014.9 |
| 20260903041811 | 70 | 233 | 0.0 | 4.0 | 0.00 | 0.00 | 0.00 | 43 | 1014.8 |
| 20260903041323 | 70 | 210 | 1.0 | 5.0 | 0.00 | 0.00 | 0.00 | 44 | 1014.9 |
| 20260903040835 | 70 | 219 | 2.0 | 5.0 | 0.00 | 0.00 | 0.00 | 45 | 1014.8 |
| 20260903040326 | 70 | 217 | 0.0 | 2.0 | 0.00 | 0.00 | 0.00 | 45 | 1014.8 |
| 20260903035837 | 70 | 228 | 0.0 | 0.0 | 0.00 | 0.00 | 0.00 | 45 | 1014.8 |
| 20260903035328 | 70 | 197 | 0.0 | 0.0 | 0.00 | 0.00 | 0.00 | 46 | 1014.6 |
| 20260903034822 | 70 | 197 | 0.0 | 0.0 | 0.00 | 0.00 | 0.00 | 45 | 1014.7 |
| 20260903034313 | 70 | 197 | 0.0 | 0.0 | 0.00 | 0.00 | 0.00 | 45 | 1014.6 |
| 20260903033824 | 71 | 197 | 0.0 | 0.0 | 0.00 | 0.00 | 0.00 | 44 | 1014.6 |
| 20260903033316 | 71 | 197 | 0.0 | 0.0 | 0.00 | 0.00 | 0.00 | 43 | 1014.5 |
| 20260903032812 | 72 | 197 | 0.0 | 0.0 | 0.00 | 0.00 | 0.00 | 43 | 1014.5 |
| 20260903032322 | 72 | 197 | 0.0 | 2.0 | 0.00 | 0.00 | 0.00 | 42 | 1014.5 |
| 20260903031834 | 72 | 211 | 0.0 | 4.0 | 0.00 | 0.00 | 0.00 | 42 | 1014.5 |
| 20260903031322 | 72 | 226 | 2.0 | 4.0 | 0.00 | 0.00 | 0.00 | 42 | 1014.5 |
| 20260903030812 | 73 | 223 | 1.0 | 3.0 | 0.00 | 0.00 | 0.00 | 41 | 1014.4 |
| 20260903030345 | 73 | 240 | 2.0 | 4.0 | 0.00 | 0.00 | 0.00 | 41 | 1014.3 |
| 20260903025815 | 73 | 219 | 0.0 | 5.0 | 0.00 | 0.00 | 0.00 | 40 | 1014.2 |
| 20260903025328 | 73 | 209 | 3.0 | 5.0 | 0.00 | 0.00 | 0.00 | 39 | 1014.2 |
| 20260903024811 | 74 | 240 | 3.0 | 5.0 | 0.00 | 0.00 | 0.00 | 38 | 1014.2 |
| 20260903024323 | 74 | 210 | 0.0 | 3.0 | 0.00 | 0.00 | 0.00 | 37 | 1014.2 |
| 20260903023818 | 74 | 232 | 1.0 | 5.0 | 0.00 | 0.00 | 0.00 | 37 | 1014.1 |
| 20260903023331 | 74 | 188 | 2.0 | 5.0 | 0.00 | 0.00 | 0.00 | 36 | 1014.0 |
| 20260903022822 | 75 | 271 | 1.0 | 4.0 | 0.00 | 0.00 | 0.00 | 35 | 1014.0 |
| 20260903022355 | 75 | 272 | 1.0 | 6.0 | 0.00 | 0.00 | 0.00 | 34 | 1013.9 |
| 20260903021830 | 76 | 260 | 3.0 | 6.0 | 0.00 | 0.00 | 0.00 | 33 | 1013.9 |
| 20260903021322 | 77 | 275 | 2.0 | 5.0 | 0.00 | 0.00 | 0.00 | 30 | 1014.0 |
| 20260903020813 | 77 | 199 | 1.0 | 3.0 | 0.00 | 0.00 | 0.00 | 30 | 1013.9 |
| 20260903020324 | 78 | 202 | 1.0 | 5.0 | 0.00 | 0.00 | 0.00 | 29 | 1013.9 |
| 20260903015924 | 79 | 220 | 2.0 | 6.0 | 0.00 | 0.00 | 0.00 | 28 | 1013.8 |
| 20260903015836 | 79 | 220 | 2.0 | 6.0 | 0.00 | 0.00 | 0.00 | 28 | 1013.8 |
| 20260903015316 | 79 | 203 | 2.0 | 6.0 | 0.00 | 0.00 | 0.00 | 27 | 1013.6 |
| 20260903014828 | 80 | 266 | 3.0 | 8.0 | 0.00 | 0.00 | 0.00 | 27 | 1013.7 |
| 20260903014401 | 80 | 221 | 4.0 | 8.0 | 0.00 | 0.00 | 0.00 | 27 | 1013.5 |
| 20260903014319 | 80 | 221 | 4.0 | 8.0 | 0.00 | 0.00 | 0.00 | 27 | 1013.5 |
| 20260903013829 | 80 | 210 | 2.0 | 7.0 | 0.00 | 0.00 | 0.00 | 26 | 1013.5 |
| 20260903013343 | 81 | 227 | 2.0 | 8.0 | 0.00 | 0.00 | 0.00 | 25 | 1013.4 |
| 20260903012813 | 81 | 247 | 4.0 | 11.0 | 0.00 | 0.00 | 0.00 | 25 | 1013.3 |
| 20260903012404 | 82 | 212 | 5.0 | 11.0 | 0.00 | 0.00 | 0.00 | 25 | 1013.3 |
| 20260903011812 | 82 | 235 | 4.0 | 12.0 | 0.00 | 0.00 | 0.00 | 24 | 1013.3 |
| 20260903011323 | 82 | 226 | 6.0 | 13.0 | 0.00 | 0.00 | 0.00 | 25 | 1013.2 |
| 20260903010815 | 83 | 248 | 5.0 | 13.0 | 0.00 | 0.00 | 0.00 | 24 | 1013.2 |
| 20260903010326 | 84 | 278 | 4.0 | 12.0 | 0.00 | 0.00 | 0.00 | 23 | 1013.2 |
| 20260903005839 | 85 | 219 | 6.0 | 11.0 | 0.00 | 0.00 | 0.00 | 21 | 1013.1 |
| 20260903005313 | 85 | 206 | 6.0 | 11.0 | 0.00 | 0.00 | 0.00 | 21 | 1013.0 |
| 20260903004824 | 86 | 213 | 5.0 | 9.0 | 0.00 | 0.00 | 0.00 | 21 | 1013.0 |
| 20260903004315 | 86 | 264 | 4.0 | 12.0 | 0.00 | 0.00 | 0.00 | 20 | 1012.9 |
| 20260903003827 | 86 | 219 | 6.0 | 13.0 | 0.00 | 0.00 | 0.00 | 18 | 1012.8 |
| 20260903003319 | 87 | 236 | 5.0 | 13.0 | 0.00 | 0.00 | 0.00 | 18 | 1012.9 |
| 20260903002830 | 87 | 188 | 5.0 | 12.0 | 0.00 | 0.00 | 0.00 | 17 | 1012.9 |
| 20260903002342 | 87 | 223 | 7.0 | 12.0 | 0.00 | 0.00 | 0.00 | 17 | 1012.9 |
| 20260903001831 | 88 | 212 | 4.0 | 10.0 | 0.00 | 0.00 | 0.00 | 18 | 1012.9 |
| 20260903001322 | 88 | 165 | 5.0 | 11.0 | 0.00 | 0.00 | 0.00 | 17 | 1012.8 |
| 20260903000834 | 88 | 186 | 4.0 | 11.0 | 0.00 | 0.00 | 0.00 | 18 | 1012.9 |
| 20260903000406 | 88 | 207 | 5.0 | 10.0 | 0.00 | 0.00 | 0.00 | 17 | 1013.0 |
| 20260902235820 | 88 | 241 | 3.0 | 10.0 | 0.00 | 0.00 | 0.00 | 17 | 1013.0 |
| 20260902235311 | 88 | 242 | 3.0 | 9.0 | 0.00 | 0.00 | 0.00 | 18 | 1012.8 |
| 20260902234844 | 88 | 236 | 3.0 | 10.0 | 0.00 | 0.00 | 0.00 | 18 | 1012.9 |
| 20260902234354 | 88 | 218 | 2.0 | 10.0 | 0.00 | 0.00 | 0.00 | 17 | 1013.0 |
| 20260902233844 | 88 | 230 | 1.0 | 9.0 | 0.00 | 0.00 | 0.00 | 18 | 1013.1 |
| 20260902233314 | 88 | 276 | 1.0 | 9.0 | 0.00 | 0.00 | 0.00 | 18 | 1013.1 |
| 20260902232847 | 88 | 181 | 1.0 | 7.0 | 0.00 | 0.00 | 0.00 | 17 | 1013.2 |
| 20260902232318 | 88 | 248 | 4.0 | 8.0 | 0.00 | 0.00 | 0.00 | 17 | 1013.2 |
| 20260902231829 | 88 | 215 | 3.0 | 5.0 | 0.00 | 0.00 | 0.00 | 17 | 1013.3 |
| 20260902231320 | 88 | 213 | 3.0 | 9.0 | 0.00 | 0.00 | 0.00 | 16 | 1013.3 |
| 20260902230811 | 88 | 219 | 5.0 | 8.0 | 0.00 | 0.00 | 0.00 | 18 | 1013.3 |
| 20260902230327 | 88 | 290 | 3.0 | 10.0 | 0.00 | 0.00 | 0.00 | 17 | 1013.4 |
| 20260902225816 | 88 | 229 | 5.0 | 10.0 | 0.00 | 0.00 | 0.00 | 17 | 1013.4 |
| 20260902225328 | 88 | 179 | 1.0 | 10.0 | 0.00 | 0.00 | 0.00 | 17 | 1013.4 |
| 20260902224840 | 88 | 233 | 5.0 | 10.0 | 0.00 | 0.00 | 0.00 | 17 | 1013.4 |
| 20260902224330 | 88 | 240 | 3.0 | 12.0 | 0.00 | 0.00 | 0.00 | 17 | 1013.4 |
| 20260902223822 | 88 | 192 | 6.0 | 12.0 | 0.00 | 0.00 | 0.00 | 17 | 1013.5 |
| 20260902223332 | 89 | 220 | 5.0 | 10.0 | 0.00 | 0.00 | 0.00 | 17 | 1013.5 |
| 20260902222904 | 89 | 239 | 3.0 | 8.0 | 0.00 | 0.00 | 0.00 | 17 | 1013.5 |
| 20260902222334 | 89 | 181 | 3.0 | 11.0 | 0.00 | 0.00 | 0.00 | 17 | 1013.5 |
| 20260902221826 | 89 | 285 | 4.0 | 9.0 | 0.00 | 0.00 | 0.00 | 18 | 1013.7 |
| 20260902221358 | 88 | 190 | 4.0 | 11.0 | 0.00 | 0.00 | 0.00 | 18 | 1013.9 |
| 20260902220826 | 88 | 185 | 4.0 | 11.0 | 0.00 | 0.00 | 0.00 | 18 | 1013.9 |
| 20260902220318 | 88 | 264 | 3.0 | 8.0 | 0.00 | 0.00 | 0.00 | 19 | 1013.9 |
| 20260902215850 | 88 | 278 | 3.0 | 8.0 | 0.00 | 0.00 | 0.00 | 18 | 1014.1 |
| 20260902215320 | 88 | 166 | 3.0 | 9.0 | 0.00 | 0.00 | 0.00 | 18 | 1014.1 |
| 20260902214814 | 88 | 222 | 3.0 | 12.0 | 0.00 | 0.00 | 0.00 | 19 | 1014.1 |
| 20260902214324 | 88 | 235 | 1.0 | 14.0 | 0.00 | 0.00 | 0.00 | 16 | 1014.2 |